Location: Unspecified
(38.6830°S, 0.0000°E)
Time: 01:39:13
(UTC+00:00)

Envisat - Pass Details

Date: 04 June 2019
Orbit: 764 x 766 km, 98.1° (Epoch: 25 June)

Event Time Altitude Azimuth Distance (km) Brightness Sun altitude
Exits shadow 19:18:03 28° 358° (N) 1,431 4.4 -29.0°
Drops below altitude 10° 19:20:21 10° 353° (N) 2,306 5.6 -29.4°
Sets 19:22:39 0° 351° (N) 3,224 6.4 -29.9°
